CW0845 Weather Reports


time (UTC)temp
C
wind
direction
speed
KPH
gust
KPH
rain 1hr
cm
rain 24hr
cm
rain mn
cm
humidity
%
barometer
mb
20260504151014 18 204 14.5 41.8 0.00 0.00 0.00 35 1010.0
20260504150514 18 263 19.3 35.4 0.00 0.00 0.00 33 1010.0
20260504141015 16 249 14.5 30.6 0.00 0.00 0.00 37 1010.6
20260504140507 16 215 12.9 29.0 0.00 0.00 0.00 36 1010.6
20260504130511 15 220 11.3 20.9 0.00 0.00 0.00 43 1010.7
20260504110504 3 175 0.0 3.2 0.00 0.00 0.00 80 1011.6
20260504100507 1 178 0.0 0.0 0.00 0.00 0.00 86 1011.3
20260504082006 3 231 0.0 0.0 0.00 0.00 0.00 79 1011.1
20260504081520 3 225 0.0 0.0 0.00 0.00 0.00 78 1011.1
20260504081016 3 225 0.0 0.0 0.00 0.00 0.00 77 1011.2
20260504080507 3 225 0.0 0.0 0.00 0.00 0.00 76 1011.2
20260504050508 3 199 1.6 3.2 0.00 0.00 0.00 71 1011.4
20260504050020 3 215 0.0 3.2 0.00 0.00 0.00 68 1011.5
20260504045510 3 215 1.6 3.2 0.00 0.00 0.00 69 1011.5
20260504044525 3 208 1.6 3.2 0.00 0.00 0.00 71 1011.6
20260504044011 2 178 0.0 3.2 0.00 0.00 0.00 74 1011.6
20260504043513 2 178 1.6 3.2 0.00 0.00 0.00 73 1011.5
20260504043024 2 178 1.6 3.2 0.00 0.00 0.00 74 1011.6
20260504042510 2 178 0.0 3.2 0.00 0.00 0.00 74 1011.6
20260504042012 2 178 0.0 3.2 0.00 0.00 0.00 75 1011.6
20260504041526 2 178 1.6 1.6 0.00 0.00 0.00 75 1011.5
20260504041008 2 178 0.0 1.6 0.00 0.00 0.00 74 1011.6
20260504040507 2 178 0.0 1.6 0.00 0.00 0.00 75 1011.5
20260504040028 2 178 0.0 3.2 0.00 0.00 0.00 75 1011.6
20260504035509 2 178 0.0 3.2 0.00 0.00 0.00 74 1011.5
20260504035009 3 178 0.0 3.2 0.00 0.00 0.00 73 1011.4
20260504034519 2 178 1.6 3.2 0.00 0.00 0.00 74 1011.3
20260504034008 2 178 1.6 3.2 0.00 0.00 0.00 74 1011.3
20260504033505 2 164 1.6 1.6 0.00 0.00 0.00 74 1011.2
20260504033005 2 164 0.0 0.0 0.00 0.00 0.00 73 1011.2
20260504032504 3 164 0.0 3.2 0.00 0.00 0.00 72 1011.1
20260504032003 3 164 0.0 3.2 0.00 0.00 0.00 72 1011.1
20260504031505 3 164 0.0 3.2 0.00 0.00 0.00 72 1011.1
20260504031004 3 164 0.0 3.2 0.00 0.00 0.00 71 1011.1
20260504030504 3 164 0.0 3.2 0.00 0.00 0.00 70 1011.1
20260504030010 3 164 0.0 3.2 0.00 0.00 0.00 70 1011.1
20260504025506 3 164 0.0 4.8 0.00 0.00 0.00 69 1011.1
20260504025009 3 164 0.0 4.8 0.00 0.00 0.00 69 1011.1
20260504024522 3 183 0.0 3.2 0.00 0.00 0.00 69 1011.2
20260504024007 3 178 1.6 3.2 0.00 0.00 0.00 70 1011.2
20260504023508 3 175 1.6 3.2 0.00 0.00 0.00 67 1011.2
20260504023018 3 198 0.0 0.0 0.00 0.00 0.00 65 1011.2
20260504022511 3 198 0.0 0.0 0.00 0.00 0.00 65 1011.1
20260504022004 4 198 0.0 0.0 0.00 0.00 0.00 64 1011.1
20260504021506 4 198 0.0 0.0 0.00 0.00 0.00 62 1011.1
20260504021004 5 198 0.0 0.0 0.00 0.00 0.00 63 1011.1
20260504020504 5 198 0.0 0.0 0.00 0.00 0.00 61 1011.0
20260504020008 5 198 0.0 0.0 0.00 0.00 0.00 60 1010.9
20260504015503 5 198 0.0 0.0 0.00 0.00 0.00 60 1010.9
20260504015008 5 198 0.0 0.0 0.00 0.00 0.00 58 1010.9
20260504014512 5 198 0.0 0.0 0.00 0.00 0.00 59 1010.8
20260504014013 5 198 0.0 0.0 0.00 0.00 0.00 56 1010.7
20260504013507 5 200 0.0 1.6 0.00 0.00 0.00 54 1010.7
20260504013028 6 156 0.0 1.6 0.00 0.00 0.00 53 1010.7
20260504012508 6 152 0.0 1.6 0.00 0.00 0.00 55 1010.6
20260504012013 6 89 0.0 3.2 0.00 0.00 0.00 55 1010.6
20260504011520 6 89 0.0 3.2 0.00 0.00 0.00 53 1010.6
20260504011012 6 207 1.6 4.8 0.00 0.00 0.00 49 1010.6
20260504010504 6 352 0.0 4.8 0.00 0.00 0.00 55 1010.6
20260504010004 6 121 1.6 3.2 0.00 0.00 0.00 53 1010.4
20260504005503 6 163 0.0 0.0 0.00 0.00 0.00 50 1010.3
20260504005005 6 274 0.0 0.0 0.00 0.00 0.00 49 1010.2
20260504004512 7 274 0.0 0.0 0.00 0.00 0.00 47 1010.1
20260504004007 7 274 0.0 3.2 0.00 0.00 0.00 46 1010.0
20260504003507 7 274 0.0 3.2 0.00 0.00 0.00 45 1009.9
20260504003028 8 263 0.0 3.2 0.00 0.00 0.00 42 1009.9
20260504002507 8 263 1.6 3.2 0.00 0.00 0.00 42 1009.8
20260504002008 8 233 0.0 3.2 0.00 0.00 0.00 38 1009.7
20260504001519 9 282 0.0 3.2 0.00 0.00 0.00 37 1009.6
20260504001010 10 282 0.0 3.2 0.00 0.00 0.00 37 1009.5
20260504000507 10 282 0.0 4.8 0.00 0.00 0.00 35 1009.5
20260504000023 10 284 0.0 17.7 0.00 0.00 0.00 34 1009.4
20260503235503 11 279 1.6 17.7 0.00 0.00 0.00 33 1009.4
20260503235004 11 321 3.2 17.7 0.00 0.00 0.00 31 1009.4
20260503234508 11 333 3.2 9.7 0.00 0.00 0.00 32 1009.4
20260503234004 11 273 4.8 11.3 0.00 0.00 0.00 31 1009.3
20260503233508 11 323 3.2 11.3 0.00 0.00 0.00 34 1009.2
20260503233011 11 45 1.6 14.5 0.00 0.00 0.00 32 1009.1
20260503232507 11 311 3.2 14.5 0.00 0.00 0.00 33 1009.1
20260503232007 11 67 4.8 12.9 0.00 0.00 0.00 34 1009.0
20260503231516 11 296 3.2 11.3 0.00 0.00 0.00 32 1009.0
20260503231007 11 320 1.6 9.7 0.00 0.00 0.00 36 1008.9
20260503230509 11 303 3.2 6.4 0.00 0.00 0.00 36 1009.0
20260503230022 11 317 1.6 20.9 0.00 0.00 0.00 36 1009.0
20260503225510 11 335 1.6 20.9 0.00 0.00 0.00 35 1009.0
20260503225014 12 183 6.4 20.9 0.00 0.00 0.00 34 1009.0
20260503224529 12 293 3.2 14.5 0.00 0.00 0.00 33 1008.9
20260503224005 12 215 4.8 14.5 0.00 0.00 0.00 35 1008.9
20260503223504 12 240 1.6 16.1 0.00 0.00 0.00 36 1009.0
20260503223012 12 338 1.6 16.1 0.00 0.00 0.00 35 1008.9
20260503222507 12 235 3.2 14.5 0.00 0.00 0.00 35 1009.0
20260503222008 12 348 1.6 17.7 0.00 0.00 0.00 35 1009.0
20260503221519 12 302 6.4 17.7 0.00 0.00 0.00 34 1009.0
20260503221009 12 326 4.8 14.5 0.00 0.00 0.00 34 1009.0
20260503220510 12 26 4.8 17.7 0.00 0.00 0.00 36 1009.0
20260503220022 12 108 1.6 20.9 0.00 0.00 0.00 34 1009.0
20260503215509 12 338 8.0 20.9 0.00 0.00 0.00 35 1009.0
20260503215010 12 15 4.8 20.9 0.00 0.00 0.00 34 1009.1
20260503214523 12 310 6.4 20.9 0.00 0.00 0.00 34 1009.0
20260503214010 12 19 4.8 17.7 0.00 0.00 0.00 35 1009.1
20260503213509 12 315 4.8 17.7 0.00 0.00 0.00 36 1009.0
20260503213011 12 352 8.0 17.7 0.00 0.00 0.00 35 1009.0
20260503212510 12 232 4.8 14.5 0.00 0.00 0.00 38 1009.0
20260503212005 12 266 1.6 11.3 0.00 0.00 0.00 36 1009.0
20260503211514 11 315 3.2 19.3 0.00 0.00 0.00 37 1009.0
20260503211006 11 336 4.8 22.5 0.00 0.00 0.00 36 1009.1
20260503210508 12 296 6.4 22.5 0.00 0.00 0.00 35 1009.0
20260503210019 12 52 3.2 19.3 0.00 0.00 0.00 37 1008.9
20260503205509 12 300 3.2 19.3 0.00 0.00 0.00 38 1008.9
20260503205007 11 33 4.8 19.3 0.00 0.00 0.00 38 1008.9
20260503204524 12 296 8.0 17.7 0.00 0.00 0.00 35 1008.9
20260503204010 12 250 6.4 24.1 0.00 0.00 0.00 36 1008.8
20260503203510 12 296 9.7 25.7 0.00 0.00 0.00 35 1008.9
20260503203031 12 271 6.4 25.7 0.00 0.00 0.00 37 1008.9
20260503202514 12 360 8.0 19.3 0.00 0.00 0.00 35 1008.9
20260503202007 11 16 3.2 27.4 0.00 0.00 0.00 36 1008.9
20260503201513 12 236 8.0 27.4 0.00 0.00 0.00 36 1008.9
20260503201007 12 12 6.4 20.9 0.00 0.00 0.00 37 1008.8
20260503200510 11 298 8.0 14.5 0.00 0.00 0.00 37 1008.9
20260503200016 11 332 6.4 17.7 0.00 0.00 0.00 36 1008.9
20260503195510 11 319 6.4 17.7 0.00 0.00 0.00 37 1008.8
20260503195011 11 342 6.4 17.7 0.00 0.00 0.00 37 1008.9
20260503194520 11 9 6.4 17.7 0.00 0.00 0.00 37 1008.9
20260503194007 11 306 4.8 20.9 0.00 0.00 0.00 37 1009.0
20260503193512 11 339 8.0 20.9 0.00 0.00 0.00 37 1008.9
20260503193024 11 340 4.8 17.7 0.00 0.00 0.00 38 1008.9
20260503192508 11 298 4.8 19.3 0.00 0.00 0.00 38 1008.8
20260503192014 11 28 6.4 19.3 0.00 0.00 0.00 37 1008.8
20260503191527 11 55 4.8 16.1 0.00 0.00 0.00 38 1008.9
20260503191010 11 265 6.4 20.9 0.00 0.00 0.00 38 1008.8
20260503190508 11 34 4.8 22.5 0.00 0.00 0.00 38 1008.9
20260503190013 11 319 8.0 22.5 0.00 0.00 0.00 40 1009.0
20260503185507 11 290 4.8 17.7 0.00 0.00 0.00 38 1008.9
20260503185007 10 315 4.8 22.5 0.00 0.00 0.00 39 1009.0
20260503184520 11 288 8.0 22.5 0.00 0.00 0.00 38 1009.1
20260503184007 11 299 8.0 19.3 0.00 0.00 0.00 39 1008.8
20260503183511 11 232 9.7 29.0 0.00 0.00 0.00 38 1008.9
20260503183025 10 290 4.8 29.0 0.00 0.00 0.00 40 1008.9
20260503182509 10 352 8.0 24.1 0.00 0.00 0.00 39 1008.8
20260503182009 10 312 4.8 20.9 0.00 0.00 0.00 39 1008.9
20260503181526 11 263 12.9 19.3 0.00 0.00 0.00 38 1008.8
20260503181009 11 360 3.2 17.7 0.00 0.00 0.00 40 1008.9
20260503180509 11 248 1.6 14.5 0.00 0.00 0.00 40 1009.0
20260503180034 10 9 4.8 17.7 0.00 0.00 0.00 43 1009.1
20260503175512 10 310 6.4 17.7 0.00 0.00 0.00 43 1009.2
20260503175007 10 306 4.8 20.9 0.00 0.00 0.00 44 1009.1
20260503174519 10 284 6.4 20.9 0.00 0.00 0.00 43 1009.1
20260503174009 11 284 4.8 27.4 0.00 0.00 0.00 41 1009.0
20260503173509 11 312 6.4 27.4 0.00 0.00 0.00 41 1008.9
20260503173032 11 263 4.8 27.4 0.00 0.00 0.00 43 1009.0
20260503172514 11 281 4.8 27.4 0.00 0.00 0.00 40 1009.0
20260503172010 11 352 8.0 32.2 0.00 0.00 0.00 43 1009.0
20260503171524 11 291 11.3 32.2 0.00 0.00 0.00 40 1008.9
20260503171009 11 286 12.9 29.0 0.00 0.00 0.00 41 1008.9
20260503170509 11 134 8.0 22.5 0.00 0.00 0.00 42 1009.0